Printer-friendly version

IAU Minor Planet Center

Minor Planet Center

MPEC 2007-E42 : 2007 EQ

The following Minor Planet Electronic Circular may be linked-to from your own Web pages, but must not otherwise be redistributed electronically.


Read MPEC 2007-E41 Read MPEC 2007-E43


M.P.E.C. 2007-E42                                Issued 2007 Mar. 10, 22:08 UT

     The Minor Planet Electronic Circulars contain information on unusual
         minor planets and routine data on comets.  They are published
   on behalf of Commission 20 of the International Astronomical Union by the
          Minor Planet Center, Smithsonian Astrophysical Observatory,
                          Cambridge, MA 02138, U.S.A.

             Prepared using the Tamkin Foundation Computer Network

                              MPC@CFA.HARVARD.EDU
          URL http://cfa-www.harvard.edu/iau/mpc.html  ISSN 1523-6714

                                    2007 EQ

Observations:
     K07E00Q* C2007 03 10.40426 14 05 14.74 +42 28 53.2          18.2 V EE042703
     K07E00Q  C2007 03 10.40689 14 05 13.81 +42 28 43.6          18.3 V EE042703
     K07E00Q  C2007 03 10.40961 14 05 12.84 +42 28 31.9          18.4 V EE042703
     K07E00Q  C2007 03 10.45123 14 04 57.75 +42 25 45.9          18.6 V EE042703
     K07E00Q  C2007 03 10.46315 14 04 53.43 +42 24 56.7          18.5 V EE042703
     K07E00Q  C2007 03 10.47176 14 04 50.37 +42 24 21.4          18.6 V EE042703
     K07E00Q  C2007 03 10.86638 14 02 49.75 +41 57 29.5          19.2 V EE042151
     K07E00Q  C2007 03 10.86990 14 02 48.61 +41 57 16.7          19.2 V EE042151
     K07E00Q  C2007 03 10.87268 14 02 47.73 +41 57 05.9          19.1 V EE042151
     K07E00Q  C2007 03 10.87513 14 02 46.91 +41 56 56.7          19.2 V EE042151
     K07E00Q  C2007 03 10.87758 14 02 46.10 +41 56 47.6          19.1 V EE042151

Observer details:
151 Eschenberg Observatory, Winterthur.  Observer M. Griesser.  0.40-m f/5.9
    Hypergraph + CCD.
703 Catalina Sky Survey.  Observers E. C. Beshore, A. P. Odell.  Measurers
    E. C. Beshore, E. J. Christensen, G. J. Garradd, A. R. Gibbs, A. D. Grauer,
    R. E. Hill, R. A. Kowalski, S. M. Larson, R. H. McNaught.  0.68-m Schmidt
    + CCD.

Orbital elements:
2007 EQ                                                  Earth MOID = 0.0530 AU
Epoch 2007 Apr. 10.0 TT = JDT 2454200.5                 MPC
M  40.29738              (2000.0)            P               Q
n   0.49800421     Peri.    5.71816     -0.33311564     -0.93842341
a   1.5763308      Node   103.76606     +0.86129919     -0.34239300
e   0.4264515      Incl.    5.41314     +0.38366350     -0.04613601
P   1.98           H   21.4           G   0.15           U   9
Residuals in seconds of arc
070310 703  0.2-  0.3-    070310 703  0.2-  0.2-    070310 151  0.2+  0.1-
070310 703  0.0   0.5+    070310 703  0.2+  0.5-    070310 151  0.2-  0.1-
070310 703  0.2+  0.3-    070310 151  0.3+  0.0     070310 151  0.4-  0.1-
070310 703  0.0   0.7+    070310 151  0.1+  0.3+

Ephemeris:
2007 EQ                  a,e,i = 1.58, 0.43, 5                   q = 0.9041
Date    TT    R. A. (2000) Decl.     Delta      r     Elong.  Phase     V
2007 03 11    14 02.06   +41 49.4    0.123    1.073   128.2    46.7    18.8
2007 03 21    13 24.74   +32 50.2    0.168    1.133   141.6    33.1    19.2
2007 03 31    13 03.79   +26 20.0    0.222    1.195   149.0    25.5    19.7
2007 04 10    12 51.54   +21 11.9    0.286    1.259   150.7    22.9    20.3
2007 04 20    12 45.32   +16 54.1    0.361    1.324   147.7    24.0    20.9
2007 04 30    12 43.91   +13 09.7    0.447    1.388   142.3    26.4    21.6

Timothy B. Spahr             (C) Copyright 2007 MPC           M.P.E.C. 2007-E42

Read MPEC 2007-E41 Read MPEC 2007-E43


Our Web policy. Index to the CBAT/MPC/ICQ pages.


Valid HTML 4.01!